Hourly Data Report for October 26, 2014

All times are specified in Local Standard Time (LST). Add 1 hour to adjust for Daylight Saving Time where and when it is observed.

RANKIN INLET A
NUNAVUT

62°48'38.000" N
92°06'53.000" W
32.30 m
2303405
71083
YRT

Download Data

Hourly Data (October 2014)
Hourly Data Report for October 26, 2014
Temp Definition
°C
Dew Point Temp Definition
°C
Rel Hum Definition
%
Wind Dir Definition
10's deg

Wind Spd Definition
km/h
Visibility Definition
km
Stn Press Definition
kPa
Hmdx Definition


Wind Chill Definition


Weather Definition


TIME
00:00 Legend Double Dagger -0.8 -1.5 95 7 17 3.2 100.18   -6 Snow
01:00 Legend Double Dagger -1.0 -1.6 96 2 13 3.2 100.22   -5 Snow
02:00 Legend Double Dagger -1.1 -1.7 96 4 22 3.2 100.22   -7 Snow
03:00 Legend Double Dagger -1.3 -2.0 95 4 22 3.2 100.23   -7 Snow
04:00 Legend Double Dagger -1.1 -2.1 93 6 23 3.2 100.25   -7 Snow
05:00 Legend Double Dagger -1.2 -2.2 93 6 25 9.7 100.26   -7 Snow
06:00 Legend Double Dagger -1.3 -2.6 91 6 23 9.7 100.27   -7 Snow
07:00 Legend Double Dagger -1.4 -2.7 91 6 20 16.1 100.30   -7 Snow,Blowing Snow
08:00 Legend Double Dagger -1.5 -2.8 91 4 20 19.3 100.31   -7 Snow
09:00 Legend Double Dagger -1.6 -3.0 90 2 17 19.3 100.33   -7 Snow
10:00 Legend Double Dagger -1.9 -3.2 91 36 18 19.3 100.36   -7 Snow
11:00 Legend Double Dagger -2.0 -3.3 91 36 23 12.9 100.37   -8 Snow
12:00 Legend Double Dagger -2.4 -3.8 90 36 21 24.1 100.42   -8 Snow
13:00 Legend Double Dagger -2.8 -4.1 91 35 26 24.1 100.46   -10 Snow,Blowing Snow
14:00 Legend Double Dagger -3.3 -4.6 91 35 30 19.3 100.47   -11 Snow,Blowing Snow
15:00 Legend Double Dagger -3.5 -4.8 91 35 33 24.1 100.52   -11 Snow,Blowing Snow
16:00 Legend Double Dagger -4.0 -5.4 90 34 30 24.1 100.54   -12 Snow,Blowing Snow
17:00 Legend Double Dagger -4.3 -5.7 90 34 32 24.1 100.56   -12 Snow,Blowing Snow
18:00 Legend Double Dagger -5.0 -6.3 91 34 30 24.1 100.57   -13 Blowing Snow
19:00 Legend Double Dagger -4.7 -6.0 91 34 32 24.1 100.58   -13 Blowing Snow
20:00 Legend Double Dagger -5.3 -6.5 91 34 35 19.3 100.59   -14 Blowing Snow
21:00 Legend Double Dagger -5.0 -6.3 91 34 33 19.3 100.60   -13 Blowing Snow
22:00 Legend Double Dagger -4.9 -6.3 90 34 34 19.3 100.61   -13 Blowing Snow
23:00 Legend Double Dagger -5.2 -6.6 90 35 29 19.3 100.63   -13 Blowing Snow

Notes on Data Quality.

Legend

  • E = Estimated
  • M = Missing
  • NA = Not Available
  • ‡ = Partner data that is not subject to review by the National Climate Archives
Date modified: